Time,TemperatureF,DewpointF,PressureIn,WindDirection,WindDirectionDegrees,WindSpeedMPH,WindSpeedGustMPH,Humidity,HourlyPrecipIn,Conditions,Clouds,dailyrainin,SoftwareType,DateUTC
2013-04-06 00:00:00,40.8,35.7,27.83,SW,235,8.0,15.0,82,0.00,CLR,CLR,0.00,WeatherDisplay:10.37,2013-04-06 05:00:00,
2013-04-06 00:10:00,41.0,35.9,27.83,WSW,237,9.0,18.0,82,0.00,CLR,CLR,0.00,WeatherDisplay:10.37,2013-04-06 05:10:00,
2013-04-06 00:20:00,41.3,35.9,27.82,WSW,237,10.0,21.0,81,0.00,CLR,CLR,0.00,WeatherDisplay:10.37,2013-04-06 05:20:00,
2013-04-06 00:30:00,41.6,35.9,27.81,WSW,238,13.0,20.0,80,0.00,CLR,CLR,0.00,WeatherDisplay:10.37,2013-04-06 05:30:00,
2013-04-06 00:40:00,41.6,36.2,27.80,WSW,238,9.0,20.0,81,0.00,CLR,CLR,0.00,WeatherDisplay:10.37,2013-04-06 05:40:00,
2013-04-06 00:50:00,41.4,36.0,27.80,WSW,237,13.0,20.0,81,0.00,CLR,CLR,0.00,WeatherDisplay:10.37,2013-04-06 05:50:00,
2013-04-06 01:00:00,41.4,36.0,27.80,WSW,238,8.0,16.0,81,0.00,CLR,CLR,0.00,WeatherDisplay:10.37,2013-04-06 06:00:00,
2013-04-06 01:10:00,41.3,36.2,27.80,WSW,238,8.0,15.0,82,0.00,CLR,CLR,0.00,WeatherDisplay:10.37,2013-04-06 06:10:00,
2013-04-06 01:20:00,41.2,36.1,27.79,SW,236,8.0,13.0,82,0.00,CLR,CLR,0.00,WeatherDisplay:10.37,2013-04-06 06:20:00,
2013-04-06 01:30:00,41.0,36.3,27.79,WSW,237,7.0,12.0,83,0.00,CLR,CLR,0.00,WeatherDisplay:10.37,2013-04-06 06:30:00,
2013-04-06 01:40:00,41.0,36.2,27.78,WSW,238,7.0,12.0,83,0.00,CLR,CLR,0.00,WeatherDisplay:10.37,2013-04-06 06:40:00,
2013-04-06 01:50:00,41.2,36.7,27.78,WSW,239,9.0,15.0,84,0.00,CLR,CLR,0.00,WeatherDisplay:10.37,2013-04-06 06:50:00,
2013-04-06 02:00:00,41.5,37.0,27.77,WSW,240,13.0,17.0,84,0.00,CLR,CLR,0.00,WeatherDisplay:10.37,2013-04-06 07:00:00,
2013-04-06 02:10:00,41.9,37.1,27.76,WSW,240,12.0,18.0,83,0.00,CLR,CLR,0.00,WeatherDisplay:10.37,2013-04-06 07:10:00,
2013-04-06 02:20:00,42.3,37.5,27.75,WSW,238,10.0,18.0,83,0.00,CLR,CLR,0.00,WeatherDisplay:10.37,2013-04-06 07:20:00,
2013-04-06 02:30:00,42.7,37.9,27.74,WSW,237,13.0,20.0,83,0.00,CLR,CLR,0.00,WeatherDisplay:10.37,2013-04-06 07:30:00,
2013-04-06 02:40:00,43.0,38.2,27.73,WSW,239,12.0,20.0,83,0.00,CLR,CLR,0.00,WeatherDisplay:10.37,2013-04-06 07:40:00,
2013-04-06 02:50:00,43.1,38.3,27.74,WSW,239,7.0,21.0,83,0.00,CLR,CLR,0.00,WeatherDisplay:10.37,2013-04-06 07:50:00,
2013-04-06 03:00:00,43.2,38.7,27.74,WSW,240,8.0,15.0,84,0.00,CLR,CLR,0.00,WeatherDisplay:10.37,2013-04-06 08:00:00,
2013-04-06 03:10:00,43.6,39.1,27.72,WSW,238,6.0,15.0,84,0.00,CLR,CLR,0.00,WeatherDisplay:10.37,2013-04-06 08:10:00,
2013-04-06 03:20:00,43.8,39.3,27.72,SW,236,7.0,13.0,84,0.00,CLR,CLR,0.00,WeatherDisplay:10.37,2013-04-06 08:20:00,
2013-04-06 03:30:00,43.6,39.0,27.71,SW,233,7.0,12.0,84,0.00,CLR,CLR,0.00,WeatherDisplay:10.37,2013-04-06 08:30:00,
2013-04-06 03:40:00,43.5,39.3,27.70,SW,234,7.0,13.0,85,0.00,CLR,CLR,0.00,WeatherDisplay:10.37,2013-04-06 08:40:00,
2013-04-06 03:50:00,43.5,39.3,27.71,WSW,237,3.0,12.0,85,0.00,CLR,CLR,0.00,WeatherDisplay:10.37,2013-04-06 08:50:00,
2013-04-06 04:00:00,43.9,40.0,27.71,WSW,240,7.0,12.0,86,0.00,CLR,CLR,0.00,WeatherDisplay:10.37,2013-04-06 09:00:00,
2013-04-06 04:10:00,46.2,42.5,27.71,WSW,247,8.0,14.0,87,0.00,CLR,CLR,0.00,WeatherDisplay:10.37,2013-04-06 09:10:00,
2013-04-06 04:20:00,47.4,42.2,27.70,WSW,249,9.0,17.0,82,0.00,CLR,CLR,0.00,WeatherDisplay:10.37,2013-04-06 09:20:00,
2013-04-06 04:30:00,47.6,42.7,27.69,WSW,245,9.0,15.0,83,0.00,CLR,CLR,0.00,WeatherDisplay:10.37,2013-04-06 09:30:00,
2013-04-06 04:40:00,47.4,42.8,27.69,WSW,246,9.0,14.0,84,0.00,CLR,CLR,0.00,WeatherDisplay:10.37,2013-04-06 09:40:00,
2013-04-06 04:50:00,47.5,42.9,27.68,WSW,249,9.0,15.0,84,0.00,CLR,CLR,0.00,WeatherDisplay:10.37,2013-04-06 09:50:00,
2013-04-06 05:00:00,47.9,43.3,27.68,WSW,251,13.0,18.0,84,0.00,CLR,CLR,0.00,WeatherDisplay:10.37,2013-04-06 10:00:00,
2013-04-06 05:10:00,48.2,43.3,27.67,WSW,251,13.0,23.0,83,0.00,CLR,CLR,0.00,WeatherDisplay:10.37,2013-04-06 10:10:00,
2013-04-06 05:20:00,47.8,42.9,27.67,WSW,251,10.0,18.0,83,0.00,CLR,CLR,0.00,WeatherDisplay:10.37,2013-04-06 10:20:00,
2013-04-06 05:30:00,47.5,42.9,27.67,WSW,251,12.0,20.0,84,0.00,CLR,CLR,0.00,WeatherDisplay:10.37,2013-04-06 10:30:00,
2013-04-06 05:40:00,47.7,43.4,27.67,WSW,251,10.0,20.0,85,0.00,CLR,CLR,0.00,WeatherDisplay:10.37,2013-04-06 10:40:00,
2013-04-06 05:50:00,48.0,43.4,27.67,WSW,250,9.0,20.0,84,0.00,CLR,CLR,0.00,WeatherDisplay:10.37,2013-04-06 10:50:00,
2013-04-06 06:00:00,47.9,43.3,27.67,WSW,246,7.0,16.0,84,0.00,CLR,CLR,0.00,WeatherDisplay:10.37,2013-04-06 11:00:00,
2013-04-06 06:10:00,47.7,43.1,27.67,WSW,243,7.0,16.0,84,0.00,CLR,CLR,0.00,WeatherDisplay:10.37,2013-04-06 11:10:00,
2013-04-06 06:20:00,47.5,43.2,27.67,WSW,241,5.0,12.0,85,0.00,CLR,CLR,0.00,WeatherDisplay:10.37,2013-04-06 11:20:00,
2013-04-06 06:30:00,47.2,42.9,27.67,WSW,247,9.0,13.0,85,0.00,CLR,CLR,0.00,WeatherDisplay:10.37,2013-04-06 11:30:00,
2013-04-06 06:40:00,47.2,43.2,27.67,WSW,250,7.0,17.0,86,0.00,CLR,CLR,0.00,WeatherDisplay:10.37,2013-04-06 11:40:00,
2013-04-06 06:50:00,47.2,42.9,27.66,WSW,251,9.0,20.0,85,0.00,CLR,CLR,0.00,WeatherDisplay:10.37,2013-04-06 11:50:00,
2013-04-06 07:00:00,47.2,42.9,27.67,WSW,251,8.0,18.0,85,0.00,CLR,CLR,0.00,WeatherDisplay:10.37,2013-04-06 12:00:00,
2013-04-06 07:10:00,47.1,43.1,27.66,WSW,249,8.0,15.0,86,0.00,CLR,CLR,0.00,WeatherDisplay:10.37,2013-04-06 12:10:00,
2013-04-06 07:20:00,46.8,42.8,27.66,WSW,249,7.0,12.0,86,0.00,CLR,CLR,0.00,WeatherDisplay:10.37,2013-04-06 12:20:00,
2013-04-06 07:30:00,46.6,42.6,27.66,WSW,248,6.0,10.0,86,0.00,CLR,CLR,0.00,WeatherDisplay:10.37,2013-04-06 12:30:00,
2013-04-06 07:40:00,46.3,42.7,27.66,WSW,249,8.0,12.0,87,0.00,CLR,CLR,0.00,WeatherDisplay:10.37,2013-04-06 12:40:00,
2013-04-06 07:50:00,46.4,43.0,27.66,WSW,248,6.0,13.0,88,0.00,CLR,CLR,0.00,WeatherDisplay:10.37,2013-04-06 12:50:00,
2013-04-06 08:00:00,46.6,43.2,27.66,WSW,249,6.0,12.0,88,0.00,CLR,CLR,0.00,WeatherDisplay:10.37,2013-04-06 13:00:00,
2013-04-06 08:10:00,46.8,43.5,27.66,WSW,252,6.0,12.0,88,0.00,CLR,CLR,0.00,WeatherDisplay:10.37,2013-04-06 13:10:00,
2013-04-06 08:20:00,47.1,43.7,27.66,WSW,250,3.0,8.0,88,0.00,CLR,CLR,0.00,WeatherDisplay:10.37,2013-04-06 13:20:00,
2013-04-06 08:30:00,47.4,44.0,27.65,WSW,253,2.0,8.0,88,0.00,CLR,CLR,0.00,WeatherDisplay:10.37,2013-04-06 13:30:00,
2013-04-06 08:40:00,47.9,44.5,27.65,WSW,258,3.0,6.0,88,0.00,CLR,CLR,0.00,WeatherDisplay:10.37,2013-04-06 13:40:00,
2013-04-06 08:50:00,48.6,44.9,27.66,West,261,2.0,10.0,87,0.00,CLR,CLR,0.00,WeatherDisplay:10.37,2013-04-06 13:50:00,
2013-04-06 09:00:00,48.8,44.8,27.66,West,265,1.0,5.0,86,0.00,CLR,CLR,0.00,WeatherDisplay:10.37,2013-04-06 14:00:00,
2013-04-06 09:10:00,46.5,41.9,27.67,WNW,295,5.0,12.0,84,0.00,CLR,CLR,0.00,WeatherDisplay:10.37,2013-04-06 14:10:00,
2013-04-06 09:20:00,42.9,39.6,27.67,WNW,297,7.0,12.0,88,0.00,CLR,CLR,0.00,WeatherDisplay:10.37,2013-04-06 14:20:00,
2013-04-06 09:30:00,41.8,38.8,27.67,WNW,298,6.0,13.0,89,0.00,CLR,CLR,0.00,WeatherDisplay:10.37,2013-04-06 14:30:00,
2013-04-06 09:40:00,41.6,39.2,27.66,NW,305,7.0,12.0,91,0.00,CLR,CLR,0.00,WeatherDisplay:10.37,2013-04-06 14:40:00,
2013-04-06 09:50:00,41.7,38.9,27.67,NW,307,6.0,15.0,90,0.00,CLR,CLR,0.00,WeatherDisplay:10.37,2013-04-06 14:50:00,
2013-04-06 10:00:00,41.1,38.4,27.68,NW,308,8.0,15.0,90,0.00,CLR,CLR,0.00,WeatherDisplay:10.37,2013-04-06 15:00:00,
2013-04-06 10:10:00,41.4,38.7,27.69,WNW,302,10.0,16.0,90,0.00,CLR,CLR,0.00,WeatherDisplay:10.37,2013-04-06 15:10:00,
2013-04-06 10:20:00,41.2,38.5,27.69,WNW,303,8.0,16.0,90,0.00,CLR,CLR,0.00,WeatherDisplay:10.37,2013-04-06 15:20:00,
2013-04-06 10:30:00,41.1,38.4,27.70,NW,304,10.0,16.0,90,0.00,CLR,CLR,0.00,WeatherDisplay:10.37,2013-04-06 15:30:00,
2013-04-06 10:40:00,40.9,38.2,27.70,WNW,303,5.0,20.0,90,0.00,CLR,CLR,0.00,WeatherDisplay:10.37,2013-04-06 15:40:00,
2013-04-06 10:50:00,40.9,38.5,27.70,WNW,302,9.0,18.0,91,0.00,CLR,CLR,0.00,WeatherDisplay:10.37,2013-04-06 15:50:00,
2013-04-06 11:00:00,41.0,38.6,27.70,NW,308,7.0,12.0,91,0.00,CLR,CLR,0.00,WeatherDisplay:10.37,2013-04-06 16:00:00,
2013-04-06 11:10:00,40.9,39.0,27.69,NW,308,9.0,14.0,93,0.00,CLR,CLR,0.00,WeatherDisplay:10.37,2013-04-06 16:10:00,
2013-04-06 11:20:00,40.5,38.9,27.69,NW,309,10.0,17.0,94,0.00,CLR,CLR,0.00,WeatherDisplay:10.37,2013-04-06 16:20:00,
2013-04-06 11:30:00,40.3,39.0,27.70,NW,309,8.0,17.0,95,0.00,CLR,CLR,0.00,WeatherDisplay:10.37,2013-04-06 16:30:00,
2013-04-06 11:40:00,40.2,39.1,27.71,NW,306,13.0,20.0,96,0.00,CLR,CLR,0.00,WeatherDisplay:10.37,2013-04-06 16:40:00,
2013-04-06 11:50:00,40.1,39.0,27.72,NW,307,9.0,17.0,96,0.00,CLR,CLR,0.00,WeatherDisplay:10.37,2013-04-06 16:50:00,
2013-04-06 12:00:00,39.9,38.9,27.72,NW,312,8.0,18.0,96,0.00,CLR,CLR,0.00,WeatherDisplay:10.37,2013-04-06 17:00:00,
2013-04-06 12:10:00,40.0,39.0,27.72,NW,308,9.0,22.0,96,0.00,CLR,CLR,0.00,WeatherDisplay:10.37,2013-04-06 17:10:00,
2013-04-06 12:20:00,40.1,38.8,27.74,NW,307,13.0,20.0,95,0.00,CLR,CLR,0.00,WeatherDisplay:10.37,2013-04-06 17:20:00,
2013-04-06 12:30:00,40.2,38.3,27.74,NW,310,10.0,22.0,93,0.00,CLR,CLR,0.00,WeatherDisplay:10.37,2013-04-06 17:30:00,
2013-04-06 12:40:00,40.5,38.6,27.73,NW,310,9.0,18.0,93,0.00,CLR,CLR,0.00,WeatherDisplay:10.37,2013-04-06 17:40:00,
2013-04-06 12:50:00,41.0,39.1,27.74,NW,312,12.0,17.0,93,0.00,CLR,CLR,0.00,WeatherDisplay:10.37,2013-04-06 17:50:00,
2013-04-06 13:00:00,41.4,39.0,27.74,NW,313,13.0,21.0,91,0.00,CLR,CLR,0.00,WeatherDisplay:10.37,2013-04-06 18:00:00,
2013-04-06 13:10:00,41.3,38.6,27.74,NW,315,13.0,24.0,90,0.00,CLR,CLR,0.00,WeatherDisplay:10.37,2013-04-06 18:10:00,
2013-04-06 13:20:00,41.4,38.7,27.74,NW,314,12.0,20.0,90,0.00,CLR,CLR,0.00,WeatherDisplay:10.37,2013-04-06 18:20:00,
2013-04-06 13:30:00,41.9,38.9,27.74,NW,316,10.0,23.0,89,0.00,CLR,CLR,0.00,WeatherDisplay:10.37,2013-04-06 18:30:00,
2013-04-06 13:40:00,41.9,38.6,27.74,NW,313,10.0,21.0,88,0.00,CLR,CLR,0.00,WeatherDisplay:10.37,2013-04-06 18:40:00,
2013-04-06 13:50:00,42.4,39.1,27.74,NW,314,9.0,21.0,88,0.00,CLR,CLR,0.00,WeatherDisplay:10.37,2013-04-06 18:50:00,
2013-04-06 14:00:00,43.8,39.9,27.75,NW,313,12.0,21.0,86,0.00,CLR,CLR,0.00,WeatherDisplay:10.37,2013-04-06 19:00:00,
2013-04-06 14:10:00,44.8,40.3,27.75,NW,319,12.0,20.0,84,0.00,CLR,CLR,0.00,WeatherDisplay:10.37,2013-04-06 19:10:00,
2013-04-06 14:20:00,45.9,41.4,27.75,NW,315,8.0,20.0,84,0.00,CLR,CLR,0.00,WeatherDisplay:10.37,2013-04-06 19:20:00,
2013-04-06 14:30:00,46.7,41.5,27.75,NW,318,6.0,22.0,82,0.00,CLR,CLR,0.00,WeatherDisplay:10.37,2013-04-06 19:30:00,
2013-04-06 14:40:00,46.7,40.5,27.75,NW,319,12.0,22.0,79,0.00,CLR,CLR,0.00,WeatherDisplay:10.37,2013-04-06 19:40:00,
2013-04-06 14:50:00,47.1,40.9,27.75,NW,317,9.0,23.0,79,0.00,CLR,CLR,0.00,WeatherDisplay:10.37,2013-04-06 19:50:00,
2013-04-06 15:00:00,47.7,40.9,27.76,NW,319,9.0,24.0,77,0.00,CLR,CLR,0.00,WeatherDisplay:10.37,2013-04-06 20:00:00,
2013-04-06 15:10:00,48.1,41.3,27.76,NW,317,12.0,22.0,77,0.00,CLR,CLR,0.00,WeatherDisplay:10.37,2013-04-06 20:10:00,
2013-04-06 15:20:00,48.6,41.4,27.77,NW,321,10.0,22.0,76,0.00,CLR,CLR,0.00,WeatherDisplay:10.37,2013-04-06 20:20:00,
2013-04-06 15:30:00,49.1,41.5,27.77,NW,320,10.0,23.0,75,0.00,CLR,CLR,0.00,WeatherDisplay:10.37,2013-04-06 20:30:00,
2013-04-06 15:40:00,49.4,41.5,27.78,NW,324,12.0,26.0,74,0.00,CLR,CLR,0.00,WeatherDisplay:10.37,2013-04-06 20:40:00,
2013-04-06 15:50:00,49.3,41.7,27.78,NW,320,9.0,21.0,75,0.00,CLR,CLR,0.00,WeatherDisplay:10.37,2013-04-06 20:50:00,
2013-04-06 16:00:00,49.7,42.1,27.78,NW,322,15.0,21.0,75,0.00,CLR,CLR,0.00,WeatherDisplay:10.37,2013-04-06 21:00:00,
2013-04-06 16:10:00,49.7,42.1,27.78,NW,322,9.0,22.0,75,0.00,CLR,CLR,0.00,WeatherDisplay:10.37,2013-04-06 21:10:00,
2013-04-06 16:20:00,49.9,42.3,27.79,NW,321,12.0,20.0,75,0.00,CLR,CLR,0.00,WeatherDisplay:10.37,2013-04-06 21:20:00,
2013-04-06 16:30:00,49.8,42.5,27.78,NW,322,7.0,23.0,76,0.00,CLR,CLR,0.00,WeatherDisplay:10.37,2013-04-06 21:30:00,
2013-04-06 16:40:00,49.9,42.9,27.79,NW,323,8.0,20.0,77,0.00,CLR,CLR,0.00,WeatherDisplay:10.37,2013-04-06 21:40:00,
2013-04-06 16:50:00,49.3,42.4,27.80,NW,326,8.0,17.0,77,0.00,CLR,CLR,0.00,WeatherDisplay:10.37,2013-04-06 21:50:00,
2013-04-06 17:00:00,49.3,42.4,27.80,NW,325,7.0,18.0,77,0.00,CLR,CLR,0.00,WeatherDisplay:10.37,2013-04-06 22:00:00,
2013-04-06 17:10:00,49.4,42.1,27.81,NW,325,9.0,18.0,76,0.00,CLR,CLR,0.00,WeatherDisplay:10.37,2013-04-06 22:10:00,
2013-04-06 17:20:00,49.1,42.2,27.82,NW,325,10.0,20.0,77,0.00,CLR,CLR,0.00,WeatherDisplay:10.37,2013-04-06 22:20:00,
2013-04-06 17:30:00,48.7,42.1,27.82,NW,325,8.0,18.0,78,0.00,CLR,CLR,0.00,WeatherDisplay:10.37,2013-04-06 22:30:00,
2013-04-06 17:40:00,48.5,41.9,27.83,NW,323,9.0,17.0,78,0.00,CLR,CLR,0.00,WeatherDisplay:10.37,2013-04-06 22:40:00,
2013-04-06 17:50:00,48.0,41.5,27.83,NW,323,9.0,18.0,78,0.00,CLR,CLR,0.00,WeatherDisplay:10.37,2013-04-06 22:50:00,
2013-04-06 18:00:00,47.9,41.3,27.84,NW,323,10.0,18.0,78,0.00,CLR,CLR,0.00,WeatherDisplay:10.37,2013-04-06 23:00:00,
2013-04-06 18:10:00,47.6,41.4,27.85,NW,323,6.0,16.0,79,0.00,CLR,CLR,0.00,WeatherDisplay:10.37,2013-04-06 23:10:00,
2013-04-06 18:20:00,47.1,41.0,27.85,NW,321,8.0,17.0,79,0.00,CLR,CLR,0.00,WeatherDisplay:10.37,2013-04-06 23:20:00,
2013-04-06 18:30:00,46.3,40.5,27.86,NW,324,13.0,20.0,80,0.00,CLR,CLR,0.00,WeatherDisplay:10.37,2013-04-06 23:30:00,
2013-04-06 18:40:00,45.6,40.5,27.86,NW,319,5.0,16.0,82,0.00,CLR,CLR,0.00,WeatherDisplay:10.37,2013-04-06 23:40:00,
2013-04-06 18:50:00,44.6,39.5,27.86,NNW,327,9.0,14.0,82,0.00,CLR,CLR,0.00,WeatherDisplay:10.37,2013-04-06 23:50:00,
2013-04-06 19:00:00,44.0,39.5,27.87,NW,325,6.0,14.0,84,0.00,CLR,CLR,0.00,WeatherDisplay:10.37,2013-04-07 00:00:00,
2013-04-06 19:10:00,43.3,38.8,27.87,NW,320,8.0,15.0,84,0.00,CLR,CLR,0.00,WeatherDisplay:10.37,2013-04-07 00:10:00,
2013-04-06 19:20:00,42.3,38.1,27.87,NW,322,8.0,14.0,85,0.00,CLR,CLR,0.00,WeatherDisplay:10.37,2013-04-07 00:20:00,
2013-04-06 19:30:00,41.3,37.4,27.87,NW,319,8.0,13.0,86,0.00,CLR,CLR,0.00,WeatherDisplay:10.37,2013-04-07 00:30:00,
2013-04-06 19:40:00,40.1,36.8,27.88,NW,324,8.0,12.0,88,0.00,CLR,CLR,0.00,WeatherDisplay:10.37,2013-04-07 00:40:00,
2013-04-06 20:00:00,38.2,35.8,27.89,NW,315,6.0,13.0,91,0.00,CLR,CLR,0.00,WeatherDisplay:10.37,2013-04-07 01:00:00,
2013-04-06 20:10:00,37.7,35.6,27.89,NW,318,7.0,13.0,92,0.00,CLR,CLR,0.00,WeatherDisplay:10.37,2013-04-07 01:10:00,
2013-04-06 20:20:00,37.1,35.3,27.90,NW,326,8.0,15.0,93,0.00,CLR,CLR,0.00,WeatherDisplay:10.37,2013-04-07 01:20:00,
2013-04-06 20:30:00,36.4,34.9,27.90,NNW,329,7.0,15.0,94,0.00,CLR,CLR,0.00,WeatherDisplay:10.37,2013-04-07 01:30:00,
2013-04-06 20:40:00,36.2,34.9,27.91,NNW,329,7.0,12.0,95,0.00,CLR,CLR,0.00,WeatherDisplay:10.37,2013-04-07 01:40:00,
2013-04-06 20:50:00,36.0,34.7,27.92,NW,314,5.0,16.0,95,0.00,CLR,CLR,0.00,WeatherDisplay:10.37,2013-04-07 01:50:00,
2013-04-06 21:00:00,35.6,34.6,27.92,NW,311,6.0,17.0,96,0.00,CLR,CLR,0.00,WeatherDisplay:10.37,2013-04-07 02:00:00,
2013-04-06 21:10:00,35.5,34.5,27.92,NW,311,6.0,12.0,96,0.00,CLR,CLR,0.00,WeatherDisplay:10.37,2013-04-07 02:10:00,
2013-04-06 21:20:00,35.3,34.3,27.92,NW,314,8.0,15.0,96,0.00,CLR,CLR,0.00,WeatherDisplay:10.37,2013-04-07 02:20:00,
2013-04-06 21:30:00,35.0,34.0,27.92,NW,316,9.0,16.0,96,0.00,CLR,CLR,0.00,WeatherDisplay:10.37,2013-04-07 02:30:00,
2013-04-06 21:40:00,34.3,33.8,27.92,NW,312,6.0,14.0,98,0.00,CLR,CLR,0.00,WeatherDisplay:10.37,2013-04-07 02:40:00,
2013-04-06 21:50:00,34.0,33.0,27.93,NW,311,9.0,14.0,96,0.00,CLR,CLR,0.00,WeatherDisplay:10.37,2013-04-07 02:50:00,
2013-04-06 22:00:00,33.9,32.6,27.94,NW,308,6.0,14.0,95,0.00,CLR,CLR,0.00,WeatherDisplay:10.37,2013-04-07 03:00:00,
2013-04-06 22:10:00,33.9,32.6,27.94,NW,310,7.0,12.0,95,0.00,CLR,CLR,0.00,WeatherDisplay:10.37,2013-04-07 03:10:00,
2013-04-06 22:20:00,33.9,32.4,27.94,NW,312,6.0,12.0,94,0.00,CLR,CLR,0.00,WeatherDisplay:10.37,2013-04-07 03:20:00,
2013-04-06 22:30:00,33.9,32.4,27.95,NW,313,6.0,12.0,94,0.00,CLR,CLR,0.00,WeatherDisplay:10.37,2013-04-07 03:30:00,
2013-04-06 22:40:00,33.9,32.4,27.95,NW,309,5.0,10.0,94,0.00,CLR,CLR,0.00,WeatherDisplay:10.37,2013-04-07 03:40:00,
2013-04-06 22:50:00,33.9,32.4,27.95,NW,314,5.0,10.0,94,0.00,CLR,CLR,0.00,WeatherDisplay:10.37,2013-04-07 03:50:00,
2013-04-06 23:00:00,33.9,32.3,27.95,NW,315,3.0,10.0,94,0.00,CLR,CLR,0.00,WeatherDisplay:10.37,2013-04-07 04:00:00,
2013-04-06 23:10:00,33.8,32.3,27.95,NW,318,7.0,12.0,94,0.00,CLR,CLR,0.00,WeatherDisplay:10.37,2013-04-07 04:10:00,
2013-04-06 23:20:00,33.6,32.1,27.95,NW,318,6.0,12.0,94,0.00,CLR,CLR,0.00,WeatherDisplay:10.37,2013-04-07 04:20:00,
2013-04-06 23:30:00,33.4,31.9,27.94,NW,314,6.0,15.0,94,0.00,CLR,CLR,0.00,WeatherDisplay:10.37,2013-04-07 04:30:00,
2013-04-06 23:40:00,33.2,32.0,27.94,NW,311,7.0,13.0,95,0.00,CLR,CLR,0.00,WeatherDisplay:10.37,2013-04-07 04:40:00,
2013-04-06 23:50:00,32.9,31.6,27.95,NW,313,7.0,18.0,95,0.00,CLR,CLR,0.00,WeatherDisplay:10.37,2013-04-07 04:50:00,